Location: Newark
(39.6867°N, 100.6772°W)
Time: 17:13:05
(UTC+00:00)

Vanguard 1 Rocket - Pass Details

Date: 30 October 2019
Orbit: 651 x 4226 km, 34.3° (Epoch: 21 November)

Event Time Altitude Azimuth Distance (km) Brightness Sun altitude
Rises 17:44:28 0° 270° (W) 4,999 11.1 35.6°
Reaches altitude 10° 17:47:06 10° 268° (W) 4,345 10.9 35.7°
Maximum altitude 18:00:03 70° 188° (S) 3,107 11.2 36.1°
Drops below altitude 10° 18:23:45 10° 111° (ESE) 7,324 12.3 36.4°
Sets 18:29:54 0° 110° (ESE) 8,463 12.5 36.4°
